Dewpoint
1 -5 -10 -12 -15 -18 -23 -26 -26 -26 -26 -25 -24 -24 -24 -24 -24 -25 -25 -25 -25 -24 -22 -18 -12 -4 -2 -7 -3 -6 -16 -15 -10 -10 -11 -12 -9 -4 -3 -5 -5 -1 -2 -3 -3 -3 -3
-15 -18 -23 -26 -27 -26 -25 -24 -23 -23 -22 -21 -20 -20 -20 -20 -19 -20 -20 -21 -22 -23 -23 -22 -18 -5 -6 -9 -7 -10 -16 -11 -8 -8 -9 -11 -10 -8 -5 -5 -4 -5 -4 -3 -3 -3 -2
-27 -27 -26 -24 -23 -23 -22 -22 -22 -22 -21 -20 -20 -19 -18 -18 -18 -17 -17 -17 -16 -16 -19 -20 -14 -5 -6 -9 -10 -6 -12 -9 -6 -6 -9 -10 -9 -6 -4 -4 -4 -3 -1 -2 -3 -3 -2
-24 -24 -23 -23 -23 -24 -23 -23 -21 -18 -16 -15 -14 -14 -14 -15 -15 -16 -16 -17 -16 -16 -15 -14 -8 -4 -7 -9 -9 -10 -12 -10 -7 -8 -7 -8 -7 -5 -3 -4 -5 -3 -3 -3 -6 -1 -3
-25 -25 -25 -24 -22 -18 -15 -13 -12 -12 -13 -13 -14 -14 -15 -15 -16 -16 -16 -16 -17 -15 -11 -6 -4 -5 -6 -8 -9 -10 -11 -9 -7 -5 -7 -7 -4 -3 -3 -3 -6 -7 -7 -4 -6 -3 -2
-26 -25 -19 -14 -12 -11 -11 -11 -12 -12 -13 -11 -11 -11 -11 -11 -13 -18 -18 -17 -13 -6 -4 -2 -1 -2 -5 -6 -6 -5 -5 -4 -5 -5 -3 -4 -3 -1 -2 -5 -5 -7 -4 -4 -4 -5 -1
-17 -13 -12 -12 -12 -13 -13 -12 -11 -9 -10 -11 -11 -10 -10 -14 -14 -17 -17 -9 -6 -3 -2 -4 -3 -3 -5 -6 -5 -5 -5 -3 -4 -3 -4 -4 -3 -3 -3 -4 -9 -11 -9 -7 -8 -6 -3
-12 -12 -12 -13 -14 -16 -17 -19 -18 -18 -11 -7 -7 -8 -9 -12 -14 -6 -5 1 4 3 2 -3 -4 -2 -3 -3 -5 -3 -3 -4 -3 -2 -4 -2 -2 -7 -6 -4 -3 -3 -3 -2 -4 -5 -3
-12 -12 -13 -13 -16 -18 -20 -20 -16 -9 -5 -3 -2 -3 -6 -8 -11 -9 -7 4 4 3 3 -1 -3 -3 -3 -4 -4 -4 -3 -4 -4 -3 -3 -3 -5 -5 -5 -4 -2 -2 -2 -4 -6 -5 -4
-12 -12 -12 -13 -15 -18 -22 -21 -7 -3 -4 -3 -4 -4 -5 -6 -10 -10 -4 0 3 2 1 -2 -3 -3 -3 -3 -5 -5 -3 -4 -4 -4 -4 -3 -5 -6 -5 -4 -5 -3 -5 -5 -5 -3 -2
-11 -11 -11 -13 -11 -16 -17 -16 -12 -1 -3 -2 -4 -5 -4 -4 -4 -7 -5 -5 4 1 -2 -4 -4 -3 -2 -4 -4 -3 -2 -3 -3 -3 -5 -5 -4 -3 -3 -5 -6 -5 -5 -4 -3 -2 -4
-10 -8 -8 -9 -8 -8 -6 -7 -5 0 -2 -4 -5 -5 -3 -4 -5 -6 -8 -3 2 -4 -3 -3 -3 -3 -3 -3 -3 -3 -3 -3 -3 -3 -3 -4 -5 -5 -5 -6 -6 -7 -6 -5 -4 -5 -0
-4 -2 -1 -0 -0 -2 -2 -2 -4 -4 -5 -6 -6 -5 -4 -4 -5 -4 -8 -1 -8 -3 -8 -3 -1 -2 -1 -2 -3 -3 -3 -2 -1 -1 -1 -4 -3 -4 -6 -5 -5 -6 -3 1 0 1 0
-1 1 1 1 0 -0 -2 -1 -1 -3 -4 -6 -8 -10 -6 -6 -4 -4 -2 -3 -11 -10 -7 -1 -1 -2 -1 -2 -3 -2 -2 -1 -4 -5 -2 0 1 -3 -5 -4 -3 -4 -3 1 1 2 -2
-0 1 1 0 -0 0 -1 -2 -1 -1 -3 -4 -6 -10 -10 -3 0 1 2 1 -10 -11 -2 -0 -4 -0 -1 -1 -1 -1 -1 -2 -3 -4 -1 -1 -1 -5 -5 -6 -5 -4 -2 -4 -2 -3 -0
0 0 0 1 -0 -1 -2 -0 -1 -2 -2 -3 -4 -7 -5 2 2 2 0 0 -2 -4 -1 -2 -1 -4 -1 -1 0 0 -0 -3 -2 -4 -3 -1 1 -1 -4 -5 -5 -5 -5 -1 -1 2 3
0 -0 -0 -0 -1 -1 -0 -2 -2 -3 -2 -3 -4 -4 -2 2 1 1 0 -1 -1 -2 -1 -1 -1 -1 -0 2 1 1 -1 -3 -2 -2 -1 -1 0 -0 -1 -2 -2 -2 -2 -3 -2 -1 2
-1 -2 -0 -1 -2 -2 -1 -1 -1 -2 -0 -0 -3 -2 -4 -1 -0 -0 -1 -1 -0 -1 -1 -0 -0 0 1 -0 -0 -1 -1 -3 -2 -2 0 0 -0 2 1 -2 -2 -3 -2 -2 2 2 1
-0 -0 -1 -1 -2 -2 -2 -3 -3 -1 -0 -0 -2 -3 -4 -2 -2 -2 -2 -1 -0 -0 -1 -1 -0 -0 -0 1 1 -0 2 -1 -1 -1 -0 1 1 1 -3 -3 -2 -0 2 2 2 2 2
-1 -1 -1 -1 -2 -2 -2 -3 -3 -3 -0 0 -1 -1 -4 -0 -0 -1 -1 -1 -1 -3 -2 -1 -1 -1 -0 -0 0 1 0 -0 -1 1 1 1 2 -1 -1 -4 -2 -1 -1 -2 -1 1 -1
-1 -1 -1 -1 -2 -3 -3 -3 -4 -4 -0 -0 -1 -1 -3 -4 -3 -2 -2 -2 -0 -1 -2 -1 -1 -0 -0 -1 -1 -1 -0 0 -1 0 1 2 2 1 -0 -1 0 0 -1 -1 -0 -1 -1
-1 -1 -2 -4 -4 -4 -3 -3 -3 -3 -2 -1 -1 -1 -1 -2 -2 -2 -3 -4 -3 -3 -3 -3 -2 -3 -2 -0 -2 -3 -0 -0 -0 -1 1 0 1 -0 -1 -1 -1 -1 -1 -1 -1 -2 -1
-1 -2 -3 -2 -3 -3 -4 -5 -5 -4 -1 -1 -1 -1 -1 -2 -2 -2 -3 -3 -2 -3 -4 -4 -4 -2 -1 -2 -2 -0 -0 -1 -1 -1 -1 0 1 0 -0 -3 -2 -1 -4 -3 -5 -9 -7
-2 -3 -3 -3 -3 -3 -3 -3 -4 -5 -4 -2 -1 -2 -2 -2 -2 -2 -3 -4 -4 -4 -1 -2 -2 -1 -2 -1 -1 -1 -1 -1 -1 -1 -1 -0 -1 -0 -0 -2 -1 -6 -7 -8 -9 -10 -10
-3 -2 -3 -2 -3 -3 -3 -3 -3 -5 -4 -3 -2 -2 -2 -2 -2 -2 -2 -3 -4 -3 -3 -3 -3 -2 -1 -1 -1 -1 -6 -6 -7 -4 -2 -1 -0 -0 -1 -2 -4 -6 -8 -8 -9 -10 -12
-4 -3 -1 -2 -3 -4 -3 -3 -3 -4 -5 -4 -4 -2 -2 -3 -2 -3 -2 -3 -2 -3 -3 -4 -5 -4 -1 -2 -1 -1 -1 -5 -6 -6 -4 -3 -1 -1 -1 -1 -2 -9 -10 -11 -10 -9 -12
-2 -2 -3 -4 -5 -5 -4 -4 -4 -6 -5 -5 -4 -4 -2 -2 -2 -2 -2 -3 -3 -2 -2 -5 -3 -2 -2 -1 -0 -1 -2 -5 -3 -5 -3 -3 -2 -2 -2 -1 -9 -13 -13 -11 -6 -10 -13
-6 -5 -5 -4 -4 -4 -4 -4 -5 -5 -5 -5 -4 -4 -2 -2 -2 -2 -2 -2 -2 -2 -3 -4 -2 -2 -2 -2 -2 -4 -2 -4 -5 -7 -6 -5 -5 -5 -4 -2 -4 -15 -12 -10 -14 -14 -14
-10 -10 -10 -10 -11 -12 -14 -15 -13 -8 -6 -4 -2 -3 -3 -3 -2 -2 -3 -3 -4 -4 -4 -2 -2 -3 -3 -2 -3 -4 -3 -6 -6 -3 -12 -7 -13 -11 -13 -13 -15 -16 -16 -16 -16 -15 -15
Wind_Speed
13 15 16 17 18 19 20 22 23 24 25 26 26 27 27 27 28 27 26 25 24 25 24 23 22 19 17 9 15 19 15 10 9 9 10 12 13 9 6 5 4 4 4 9 17 16 14
15 16 17 19 20 21 22 23 24 25 27 28 28 28 28 29 29 29 28 27 26 25 24 25 25 20 14 6 11 12 11 10 11 11 12 13 8 11 4 4 6 2 5 9 10 16 12
16 17 18 19 21 22 23 23 24 25 27 28 29 30 31 32 31 31 31 29 27 27 25 25 24 18 16 24 17 14 12 11 11 12 12 10 11 8 4 2 5 3 5 6 8 8 7
18 20 21 22 23 24 25 26 27 28 29 30 30 30 31 32 32 33 31 28 28 26 25 23 19 14 11 13 13 15 15 13 11 10 9 7 9 7 4 2 3 2 1 3 1 5 2
19 20 21 21 23 24 26 28 29 28 29 29 29 30 30 31 31 30 30 27 25 25 21 14 11 9 8 7 10 12 13 11 12 10 9 7 8 5 4 4 3 2 4 6 8 6 3
19 20 22 24 25 26 27 27 27 27 26 26 27 29 30 32 32 31 29 24 20 14 9 9 9 5 11 4 6 7 12 12 8 11 8 7 5 3 2 4 6 7 5 5 6 3 3
20 22 24 25 25 26 26 27 27 27 27 27 27 28 30 31 32 28 26 21 8 3 5 9 9 9 8 6 4 6 10 13 9 7 6 5 4 9 17 13 3 3 5 6 4 5 4
23 24 25 25 26 27 27 28 27 27 27 27 28 29 30 30 27 16 17 8 9 11 15 18 27 26 27 27 7 11 13 11 8 7 5 2 10 13 5 6 7 5 4 9 4 4 7
24 25 25 25 25 26 27 27 27 27 26 26 26 27 28 31 17 16 15 11 14 11 6 10 4 4 1 4 7 10 18 8 5 6 7 8 4 4 7 5 7 5 10 5 10 3 4
24 26 27 26 26 26 26 25 25 26 27 27 26 25 27 31 9 22 9 12 14 9 3 6 2 1 2 2 2 5 13 4 2 8 5 7 5 5 3 6 7 4 9 10 4 3 4
24 25 27 27 26 26 25 25 23 25 28 26 26 24 23 21 24 20 14 11 10 4 6 1 2 2 2 3 1 3 7 6 4 4 5 6 4 4 5 9 10 8 5 6 3 3 2
25 26 26 25 25 25 26 25 21 26 27 27 25 23 23 21 21 13 12 9 5 4 8 1 1 1 2 3 3 3 3 3 1 3 3 7 2 4 6 3 6 4 4 5 4 2 3
24 25 25 25 25 26 25 25 25 26 29 29 26 23 22 23 19 16 9 4 4 4 4 1 2 3 2 3 3 5 5 4 5 1 4 3 5 3 4 3 3 3 5 2 2 2 6
23 23 24 24 25 27 26 26 28 28 29 31 30 24 21 20 13 10 1 3 4 3 4 3 3 4 5 2 2 3 3 4 6 3 2 4 5 7 4 6 6 6 7 5 7 4 3
25 24 24 23 23 26 27 26 27 29 31 32 32 27 19 11 4 2 2 2 6 5 1 3 4 2 3 2 1 2 5 5 6 9 8 5 6 3 3 0 4 4 4 3 0 2 1
24 24 25 24 24 25 24 26 27 28 28 30 32 30 11 3 4 3 3 6 5 2 3 1 3 2 4 2 2 1 3 3 3 5 2 3 4 2 2 1 1 5 3 2 0 4 5
25 25 25 25 23 24 26 25 27 25 25 26 23 14 3 4 4 4 4 6 5 6 4 4 3 4 4 3 2 3 4 4 1 2 1 3 3 3 2 3 5 1 2 1 1 3 4
26 26 26 24 24 23 24 25 24 22 23 20 11 3 3 3 4 4 3 3 5 4 3 5 3 6 5 3 5 5 7 5 2 3 3 1 4 5 7 2 1 2 2 3 4 4 1
26 26 27 26 24 25 26 27 25 23 22 20 5 10 12 4 3 3 4 5 5 3 3 4 4 5 2 3 4 5 2 2 0 2 3 2 2 1 4 3 2 2 1 4 4 1 3
27 28 28 28 26 27 26 26 25 24 20 20 4 3 4 8 7 3 5 7 5 9 5 6 5 5 4 4 6 5 4 4 5 6 5 5 6 6 7 3 3 2 2 2 3 2 3
27 27 28 28 27 27 26 25 23 23 19 17 8 5 6 3 5 5 4 3 6 7 3 3 4 4 7 6 2 8 4 3 6 5 3 4 4 7 5 4 4 6 11 6 9 9 7
30 28 28 26 25 25 26 27 26 24 22 23 9 3 3 6 7 5 4 5 14 17 6 14 15 15 9 8 8 8 2 3 5 1 3 1 2 3 5 9 10 12 11 10 13 11 11
30 30 30 29 28 27 26 27 27 27 23 20 17 22 18 16 5 5 6 7 11 6 11 25 20 16 11 14 17 18 15 11 9 5 4 3 2 2 5 3 2 4 7 4 5 6 2
28 27 29 30 28 28 28 28 27 25 22 24 22 23 9 9 9 10 8 11 16 17 9 22 19 11 12 20 12 11 13 13 13 16 15 8 4 5 4 3 6 2 4 4 14 7 6
27 27 29 29 27 25 25 23 21 25 25 25 26 20 9 4 8 9 13 15 19 18 13 13 29 25 24 16 4 3 3 4 5 10 8 11 7 3 3 4 2 4 2 2 3 3 4
25 26 25 25 24 21 23 22 22 25 24 25 25 21 18 8 4 16 5 13 9 9 4 9 21 17 11 4 4 5 5 4 4 5 2 3 7 4 3 4 6 1 2 8 3 2 6
25 24 24 22 22 22 23 22 22 23 21 21 25 22 22 10 6 6 4 4 5 4 3 3 4 4 11 3 3 2 3 3 3 4 4 2 3 10 9 5 1 5 12 8 3 1 9
25 25 24 23 22 22 22 23 23 22 21 20 24 22 21 13 14 11 15 12 7 4 2 4 6 3 2 2 2 3 2 4 1 1 1 4 2 2 2 5 4 20 1 1 3 6 9
23 23 23 23 23 23 23 22 20 18 19 19 21 17 18 12 9 13 10 11 10 10 11 7 6 3 7 2 2 1 2 1 2 1 6 1 4 2 4 4 8 17 16 11 10 8 12
Wind_Direction
2 359 358 354 351 348 345 343 341 339 337 336 334 332 330 328 326 324 322 321 320 318 316 314 312 309 306 282 268 281 271 259 235 229 228 214 195 186 182 192 174 221 244 247 257 260 252
358 353 348 345 343 343 341 339 337 335 334 333 331 329 327 324 321 318 316 315 314 310 310 309 307 303 292 247 272 263 252 237 229 226 225 214 217 216 207 211 177 212 250 269 274 262 236
345 343 341 339 338 337 335 334 334 333 331 330 328 326 323 321 319 315 314 313 313 309 306 302 298 289 270 264 261 254 246 235 231 230 226 219 218 199 174 236 254 280 305 306 229 238 229
342 342 341 340 339 337 336 335 334 332 329 326 324 322 321 319 318 314 312 310 308 304 300 295 284 276 251 252 252 248 241 235 228 222 227 222 214 216 204 276 333 302 128 299 247 156 255
339 340 338 336 336 337 335 333 331 330 328 328 328 327 327 326 324 318 315 314 310 301 297 286 272 242 256 246 238 234 226 219 217 214 206 194 183 180 149 120 347 332 240 208 307 202 134
337 338 339 339 338 336 334 333 333 332 333 335 336 336 336 336 335 326 324 326 313 301 293 273 246 249 240 235 208 208 202 201 189 179 161 178 162 126 86 133 219 210 216 235 235 193 165
340 342 340 338 338 335 334 334 334 334 334 334 333 332 334 335 335 332 332 350 350 306 292 246 255 257 253 262 235 215 199 192 184 182 177 194 153 205 205 201 182 182 195 226 231 223 218
344 341 340 339 337 335 334 333 331 330 329 331 331 331 334 336 339 349 346 45 19 310 302 284 269 266 266 269 263 220 208 190 180 199 130 123 224 227 187 186 210 196 212 255 281 248 193
344 342 340 339 337 335 333 332 332 332 331 327 329 329 333 334 338 344 351 20 349 328 279 301 267 267 350 192 226 230 197 197 172 171 203 196 239 152 164 179 196 207 222 215 243 333 252
343 340 338 335 334 333 331 329 333 333 333 332 327 327 331 332 344 339 338 340 344 339 320 275 268 134 165 193 264 206 201 208 201 211 192 240 239 192 184 221 170 230 216 223 229 135 232
339 338 337 336 335 336 336 335 330 332 333 330 332 331 329 336 327 334 323 328 337 334 341 112 161 149 183 192 216 195 193 214 218 203 133 251 174 161 192 226 168 235 142 169 162 181 353
337 336 337 337 339 340 340 344 337 331 333 331 330 333 327 327 324 322 311 324 333 53 254 307 32 317 360 187 194 156 164 199 177 195 219 249 255 218 214 196 177 132 91 48 51 103 265
336 334 333 334 335 338 338 337 338 333 333 331 327 328 324 319 318 313 306 319 34 167 352 321 314 22 339 248 223 175 178 187 197 174 232 269 227 234 176 181 167 141 97 287 263 189 232
329 329 326 324 326 328 332 329 332 332 334 334 326 323 322 314 306 312 354 52 211 235 263 3 339 305 229 180 226 198 188 232 216 137 160 207 283 185 182 199 186 185 168 176 225 198 202
326 325 325 325 322 321 324 327 326 329 332 333 329 324 318 307 289 291 155 152 226 225 306 350 304 256 273 246 283 336 221 219 207 180 189 186 258 268 212 197 158 179 187 199 137 77 93
321 321 320 318 318 319 316 319 325 324 333 337 337 331 330 293 308 220 198 243 258 245 324 16 242 215 255 268 303 286 228 207 214 195 169 236 286 224 256 180 178 170 170 97 57 208 221
318 318 318 316 313 313 315 314 319 329 328 328 339 330 338 349 293 233 236 243 300 303 278 230 257 284 243 280 233 246 255 292 238 182 172 186 178 271 306 191 191 233 220 101 222 185 226
320 318 316 317 313 311 312 310 314 319 317 315 320 286 269 293 284 229 238 254 323 303 303 277 231 225 229 237 268 237 234 235 36 167 200 177 162 241 239 254 19 83 227 188 219 224 181
315 316 315 317 314 309 305 306 304 308 310 304 274 274 266 288 230 251 296 284 282 289 286 307 295 227 219 227 265 224 261 289 131 133 185 168 214 280 300 11 16 137 109 106 102 122 199
317 317 315 315 316 312 311 311 305 304 302 295 257 277 266 208 229 209 268 261 247 262 253 253 257 265 268 278 225 270 267 278 231 190 237 170 192 194 231 176 120 225 159 139 140 221 238
318 317 318 316 315 311 309 309 310 303 299 287 216 234 230 241 238 223 231 281 289 287 252 301 288 269 231 266 268 258 264 323 277 336 225 217 234 205 236 229 216 234 261 213 214 227 228
317 316 318 318 316 310 308 308 304 304 299 285 259 259 241 257 230 217 244 224 266 265 245 270 263 266 252 259 223 258 219 180 246 170 227 306 283 187 252 234 224 245 250 230 241 249 242
317 320 319 319 316 316 316 317 310 304 303 286 262 258 243 268 229 200 211 225 243 251 263 256 258 266 255 257 260 252 260 231 224 215 220 231 227 222 257 262 129 248 235 231 96 55 46
327 322 316 312 312 312 312 307 314 315 302 300 298 279 226 253 224 235 230 239 251 260 267 275 284 280 277 299 260 249 252 247 246 251 236 240 213 221 250 130 234 76 31 116 106 74 53
331 326 321 318 316 309 316 317 307 311 310 304 299 292 274 274 209 222 234 237 262 273 267 270 278 269 285 256 257 257 325 342 265 249 245 240 246 241 223 194 71 176 68 136 152 103 359
331 328 325 323 326 321 320 317 311 315 314 310 302 296 295 303 217 247 226 239 250 265 273 259 269 273 243 251 220 225 216 205 303 339 205 225 236 230 194 220 219 111 23 351 326 136 2
345 342 338 336 333 328 323 320 318 318 317 310 301 302 280 257 261 250 219 229 214 215 250 312 260 253 237 254 251 193 225 180 219 209 180 177 215 219 230 244 28 356 311 313 195 151 337
349 346 343 337 336 336 333 327 324 322 321 313 304 311 287 275 270 258 284 252 267 226 238 277 290 228 180 244 221 226 204 206 118 11 247 159 226 191 218 203 209 347 44 61 355 359 8
351 349 347 346 343 339 336 333 334 331 323 312 313 325 327 262 278 281 274 271 300 300 292 258 242 214 237 189 222 180 240 135 199 244 18 79 1 26 15 83 74 47 69 51 32 15 3
Height
1560 1558 1556 1554 1552 1549 1546 1544 1541 1538 1534 1531 1527 1523 1519 1515 1511 1508 1504 1501 1498 1495 1492 1489 1487 1485 1484 1482 1476 1473 1474 1475 1475 1477 1479 1480 1481 1481 1483 1482 1483 1483 1479 1478 1477 1478 1478
1560 1558 1556 1553 1551 1548 1545 1542 1539 1536 1532 1529 1525 1521 1517 1513 1509 1505 1501 1498 1495 1491 1488 1486 1483 1481 1480 1478 1470 1470 1471 1472 1473 1474 1476 1477 1476 1477 1479 1479 1480 1477 1476 1475 1473 1473 1474
1560 1557 1555 1552 1549 1546 1544 1540 1537 1534 1530 1525 1521 1516 1512 1507 1503 1499 1495 1492 1488 1485 1483 1480 1478 1476 1475 1468 1466 1467 1468 1468 1470 1472 1472 1473 1474 1476 1476 1477 1476 1476 1477 1473 1468 1467 1469
1559 1557 1554 1551 1548 1545 1542 1538 1534 1530 1526 1522 1517 1513 1508 1503 1499 1493 1489 1486 1482 1479 1476 1474 1472 1471 1467 1462 1461 1462 1465 1465 1467 1468 1470 1470 1472 1474 1475 1475 1475 1477 1478 1478 1466 1466 1466
1558 1556 1553 1550 1546 1543 1539 1535 1532 1527 1523 1518 1514 1509 1504 1499 1494 1489 1484 1480 1476 1472 1469 1468 1469 1468 1462 1458 1458 1459 1461 1462 1463 1464 1466 1467 1469 1471 1473 1477 1481 1481 1478 1479 1470 1463 1464
1557 1554 1551 1548 1544 1540 1537 1533 1529 1524 1520 1516 1511 1506 1501 1496 1490 1483 1479 1475 1470 1466 1465 1465 1465 1469 1458 1456 1455 1456 1458 1460 1461 1462 1465 1467 1468 1471 1474 1476 1477 1472 1477 1476 1470 1461 1463
1554 1551 1548 1545 1542 1538 1534 1530 1526 1522 1517 1513 1508 1504 1498 1493 1487 1481 1475 1472 1472 1468 1465 1460 1459 1455 1454 1455 1455 1456 1457 1458 1460 1461 1463 1463 1469 1466 1457 1457 1459 1460 1467 1465 1460 1457 1459
1553 1550 1546 1543 1539 1536 1532 1528 1524 1519 1515 1511 1506 1501 1496 1491 1486 1482 1479 1477 1482 1481 1463 1453 1449 1448 1449 1452 1454 1452 1455 1458 1457 1459 1460 1464 1459 1449 1451 1456 1458 1460 1462 1460 1456 1452 1457
1551 1548 1544 1541 1537 1533 1529 1525 1521 1516 1512 1509 1504 1500 1495 1489 1486 1484 1481 1481 1480 1478 1473 1448 1446 1445 1446 1448 1448 1448 1450 1451 1452 1458 1458 1457 1448 1445 1451 1455 1458 1458 1457 1458 1453 1453 1452
1550 1546 1542 1539 1534 1531 1526 1522 1518 1514 1511 1506 1503 1499 1494 1488 1488 1484 1482 1481 1479 1478 1476 1452 1445 1445 1446 1445 1447 1446 1449 1452 1451 1452 1456 1455 1445 1446 1450 1450 1452 1455 1448 1448 1451 1456 1453
1548 1544 1541 1537 1532 1528 1523 1519 1515 1512 1509 1505 1501 1497 1493 1490 1487 1484 1483 1480 1479 1480 1482 1446 1444 1444 1444 1445 1445 1445 1446 1449 1450 1450 1453 1445 1444 1447 1449 1444 1444 1444 1443 1448 1450 1455 1454
1545 1542 1538 1535 1531 1526 1522 1518 1514 1511 1506 1502 1499 1496 1491 1489 1486 1483 1480 1479 1479 1483 1480 1444 1444 1444 1444 1443 1443 1444 1445 1446 1447 1447 1448 1445 1442 1442 1439 1437 1440 1440 1444 1453 1460 1460 1459
1541 1538 1535 1532 1530 1525 1521 1517 1513 1509 1505 1500 1496 1493 1490 1487 1484 1481 1480 1480 1486 1483 1446 1446 1446 1445 1446 1442 1440 1441 1443 1446 1448 1451 1450 1442 1439 1434 1432 1435 1437 1438 1445 1451 1451 1461 1439
1539 1536 1534 1531 1527 1524 1520 1516 1511 1507 1503 1498 1492 1489 1487 1484 1481 1480 1479 1483 1484 1452 1450 1450 1449 1447 1445 1439 1439 1440 1440 1442 1441 1442 1449 1446 1438 1432 1429 1429 1431 1439 1439 1442 1436 1443 1435
1536 1532 1530 1527 1525 1522 1518 1515 1510 1505 1501 1496 1489 1485 1483 1480 1479 1479 1481 1487 1466 1458 1455 1454 1448 1447 1444 1441 1443 1441 1442 1440 1435 1436 1439 1446 1438 1426 1425 1425 1426 1434 1438 1430 1433 1443 1448
1531 1529 1526 1523 1520 1517 1515 1511 1507 1503 1499 1494 1488 1483 1480 1480 1480 1480 1480 1473 1462 1456 1455 1454 1453 1448 1447 1444 1442 1441 1439 1434 1433 1433 1433 1434 1437 1427 1424 1424 1424 1424 1427 1434 1438 1437 1439
1527 1523 1521 1519 1517 1513 1510 1508 1504 1500 1496 1492 1488 1484 1481 1481 1480 1481 1478 1472 1462 1457 1457 1457 1454 1453 1450 1447 1444 1445 1436 1432 1431 1432 1434 1435 1439 1433 1429 1427 1427 1429 1429 1429 1430 1430 1427
1523 1520 1516 1513 1510 1508 1505 1502 1499 1497 1494 1489 1488 1485 1478 1479 1480 1475 1474 1467 1464 1458 1456 1454 1450 1450 1450 1447 1446 1444 1440 1431 1430 1430 1432 1433 1440 1439 1437 1429 1430 1429 1429 1430 1429 1431 1436
1519 1517 1513 1510 1507 1503 1500 1498 1495 1493 1491 1487 1483 1480 1474 1475 1480 1476 1470 1468 1466 1462 1459 1455 1453 1448 1446 1447 1451 1441 1436 1434 1432 1431 1431 1432 1435 1439 1433 1433 1429 1430 1432 1435 1439 1441 1438
1514 1512 1509 1506 1503 1500 1497 1493 1491 1490 1488 1484 1481 1477 1472 1471 1469 1470 1468 1462 1460 1455 1454 1452 1448 1446 1445 1445 1444 1439 1436 1432 1431 1430 1430 1431 1429 1429 1431 1425 1430 1433 1432 1434 1437 1443 1440
1509 1506 1503 1501 1498 1495 1493 1489 1487 1485 1483 1481 1473 1469 1467 1469 1464 1462 1463 1461 1459 1458 1453 1451 1447 1444 1445 1442 1441 1440 1434 1434 1430 1429 1428 1428 1421 1427 1424 1426 1430 1430 1429 1433 1435 1433 1437
1505 1501 1499 1495 1492 1488 1486 1483 1482 1481 1479 1474 1470 1467 1465 1463 1459 1459 1459 1460 1455 1450 1452 1448 1447 1441 1441 1439 1440 1439 1434 1434 1432 1427 1428 1425 1423 1426 1430 1426 1425 1424 1424 1427 1426 1427 1428
1500 1497 1494 1491 1488 1485 1482 1479 1477 1475 1474 1467 1461 1461 1461 1455 1456 1454 1450 1448 1446 1445 1443 1440 1439 1438 1435 1432 1430 1428 1428 1428 1429 1429 1426 1424 1422 1423 1417 1424 1427 1429 1429 1425 1435 1448 1447
1494 1490 1488 1485 1482 1479 1476 1473 1472 1469 1469 1465 1460 1456 1451 1442 1447 1444 1442 1442 1441 1438 1440 1436 1437 1436 1430 1430 1425 1423 1423 1422 1423 1419 1420 1418 1420 1419 1415 1427 1422 1435 1436 1436 1444 1455 1455
1489 1485 1483 1480 1476 1473 1470 1468 1465 1464 1461 1459 1457 1454 1447 1436 1436 1437 1438 1435 1435 1435 1434 1431 1427 1429 1426 1426 1422 1419 1428 1425 1418 1414 1414 1415 1415 1415 1414 1421 1431 1434 1441 1442 1440 1458 1460
1485 1482 1479 1475 1472 1469 1465 1463 1460 1459 1457 1453 1450 1451 1447 1441 1432 1431 1431 1432 1432 1429 1428 1424 1423 1423 1423 1419 1416 1412 1413 1418 1420 1420 1414 1415 1414 1414 1413 1410 1413 1447 1445 1446 1444 1452 1461
1482 1479 1475 1472 1469 1465 1462 1459 1456 1453 1450 1449 1444 1446 1442 1436 1430 1430 1429 1428 1427 1425 1422 1421 1419 1418 1417 1411 1404 1402 1411 1414 1416 1421 1413 1414 1412 1409 1409 1404 1442 1452 1449 1445 1438 1461 1461
1481 1478 1474 1470 1466 1463 1459 1456 1452 1450 1446 1444 1440 1439 1437 1430 1427 1425 1425 1424 1424 1422 1421 1420 1419 1412 1412 1411 1409 1411 1408 1411 1415 1418 1419 1415 1419 1417 1413 1405 1419 1453 1448 1446 1465 1462 1462
1480 1476 1472 1469 1464 1461 1456 1452 1448 1446 1443 1440 1437 1434 1431 1427 1427 1425 1423 1422 1422 1421 1420 1416 1413 1411 1409 1407 1409 1408 1407 1414 1414 1407 1434 1427 1449 1441 1453 1456 1464 1462 1462 1464 1464 1464 1461